Location: Newark
(51.0500°N, 12.4500°E)
Time: 14:47:39
(UTC+00:00)

Tiros 1 - Pass Details

Date: 22 February 2020
Orbit: 630 x 664 km, 48.4° (Epoch: 31 March)

Event Time Altitude Azimuth Distance (km) Brightness Sun altitude
Rises 04:22:41 0° 266° (W) 2,921 - -17.7°
Reaches altitude 10° 04:25:01 10° 263° (W) 2,010 - -17.3°
Exits shadow 04:27:33 32° 253° (WSW) 1,094 7.8 -16.9°
Maximum altitude 04:29:35 63° 183° (S) 703 7.2 -16.6°
Drops below altitude 10° 04:34:09 10° 103° (ESE) 2,008 10.9 -15.9°
Sets 04:36:29 0° 100° (E) 2,917 12.2 -15.5°
